Regional Weather Roundup
Issued by NWS Wilmington, NC

Home | Current Version | Previous Version | Text Only | Print | Product List | Glossary On
Versions: 1 2 3 4 5 6 7 8 9 10 11 12 13 14 15 16 17 18 19 20 21 22 23 24 25 26 27 28 29 30 31 32 33 34 35 36 37 38 39 40 41 42 43 44 45 46 47 48 49 50
000
ASUS42 KILM 080512
RWRILM
RWRILM
REGIONAL HOURLY WEATHER ROUNDUP
NATIONAL WEATHER SERVICE WILMINGTON NC
1200 AM EST THU DEC 08 2016

NOTE: "FAIR" INDICATES FEW OR NO CLOUDS BELOW 12,000 FEET WITH NO
SIGNIFICANT WEATHER AND/OR OBSTRUCTIONS TO VISIBILITY.

...............WFO WILMINGTON COUNTY WARNING AREA...............

......COASTAL NC AND SC COUNTIES......

CITY           SKY/WX    TMP DP  RH WIND       PRES   REMARKS
WILMINGTON     CLEAR     44  44 100 CALM      30.08F
N MYRTLE BEACH CLEAR     50  49  96 W6        30.08S
MYRTLE BEACH   CLEAR     50  46  87 W5        30.11S

......INLAND NC AND SC COUNTIES.......

CITY           SKY/WX    TMP DP  RH WIND       PRES   REMARKS
LUMBERTON      CLOUDY    52  51  97 SW3       30.06F
ELIZABETHTOWN  PTCLDY    46  46  99 SE5       30.08S
WHITEVILLE     CLEAR     44  43  96 CALM      30.08S
FLORENCE       CLOUDY    54  51  90 SW6       30.08S
DARLINGTON     MOCLDY    52  49  89 S8G53     30.07F
KINGSTREE      CLOUDY    52  48  87 CALM      30.09S
HARTSVILLE     FAIR      46  46 100 CALM      30.06F
BENNETTSVILLE  MOCLDY    54  52  94 CALM      30.06F
CONWAY         FAIR      43  41  93 CALM      30.09S
GEORGETOWN     CLOUDY    46  46 100 CALM      30.10F
MARION         CLOUDY    52  50  93 SW6       30.07F

....................REST OF NORTH CAROLINA......................

.........EASTERN NC.........

CITY           SKY/WX    TMP DP  RH WIND       PRES   REMARKS
CAPE HATTERAS  NOT AVBL
JACKSONVILLE   CLOUDY    47  46  97 CALM      30.09F
MOREHEAD CITY  CLEAR     45  43  93 NE5       30.09S
KENANSVILLE    NOT AVBL
NEW BERN       PTCLDY    42  40  92 NE3       30.10S FOG
ELIZABETH CITY FOG       39  38  96 SW3       30.09S VSB 3/4

.........CENTRAL NC.........

CITY           SKY/WX    TMP DP  RH WIND       PRES   REMARKS
RALEIGH DURHAM CLOUDY    49  44  83 CALM      30.06F
ROCKY MOUNT    CLOUDY    44  44 100 CALM      30.08F
ROANOKE RAPIDS NOT AVBL
FAYETTEVILLE   CLOUDY    50  47  89 CALM      30.06F
HOFFMAN        MOCLDY    48  46  93 NW3       30.06S

.........WESTERN NC.........

CITY           SKY/WX    TMP DP  RH WIND       PRES   REMARKS
CHARLOTTE      CLOUDY    51  47  86 SW5       30.06F
GREENSBORO     MOCLDY    48  41  76 CALM      30.04F
HICKORY        NOT AVBL
BOONE          NOT AVBL
ASHEVILLE      NOT AVBL

.....................REST OF SOUTH CAROLINA.....................

.........EASTERN SC.........

CITY           SKY/WX    TMP DP  RH WIND       PRES   REMARKS
CHARLESTON     CLOUDY    53  50  89 CALM      30.09F
BEAUFORT MCAS  CLOUDY    56  54  93 CALM      30.09F
HILTON HEAD    CLOUDY    57  57 100 CALM      30.10S FOG

.........CENTRAL SC.........

CITY           SKY/WX    TMP DP  RH WIND       PRES   REMARKS
COLUMBIA       CLOUDY    51  49  92 W3        30.07F
ORANGEBURG     CLOUDY    52  51  97 S5        30.09S
SUMTER SHAW    PTCLDY    47  46  94 CALM      30.05F

.........WESTERN SC.........

CITY           SKY/WX    TMP DP  RH WIND       PRES   REMARKS
GREENVILLE     NOT AVBL
ROCK HILL      CLOUDY    51  49  92 W3        30.06F
ANDERSON       FOG       47  46  97 S7        30.07S VSB 1/2
CLEMSON        NOT AVBL
GREENWOOD      FOG       45  44  97 SW5       30.10S VSB 1/2


...................COASTAL AND OFFSHORE REPORTS..................

................LOCAL PIERS AND NC RESERVE................


STATION/POSITION TIME  SKY/WX   TEMP    WIND        PRES    VSBY
                                AIR SEA DIR/SP/G
                 (UTC)          (F)     (DEG/KT/KT) (MB)    (MI)
JOHNY MRCER PIER 0442            52 62  280/  4/  5 1017.2F
NC RESRV MASNBRO 0345            48     320/  2     1018.0
OCEAN CREST PIER NOT AVBL
SPRINGMAID  PIER NOT AVBL


................COASTAL AND OFFSHORE BUOYS................


STATION/POSITION TIME  SKY/WX   TEMP    WIND        PRES    VSBY
                                AIR SEA DIR/SP/G
                 (UTC)          (F)     (DEG/KT/KT) (MB)    (MI)
DIMNDSHOAL 41025 0350            54 78   10/  6/ 10 1018.6
WVE H/P(F/S)=  6/11 SWL H/P/D(F/S/D)=  7/ 50/11

CAPE LOOKOUT     0400            55      60/  6/  7 1018.3F
ONSLOW BAY 41036 NOT AVBL
ONSLOW BAY 41064 0408            57 71   80/  2/  6 1018.5F
ONSLOW BAY 41159 NOT AVBL
5SE WRITBC 41038 0408            55 62  300/  4/  6 1018.6R
MASNBO INL 41110 0459               62                N/A
WVE H/P(F/S)=  2/ 7

WILM HARBR 41108 0456               62                N/A
WVE H/P(F/S)=  2/ 7

27SE WRITB 41037 0408            60 69  300/  2/  6 1018.1S
FRYING PAN 41013 0430            62 74  250/  2/  6 1018.5R
SUNST NRSH 41024 0408            58 60  250/ 10/ 12 1018.3R
CAPRS NRSH 41029 0408            55 61  350/  4/  6 1019.0R
EDISTO     41004 0350            62 74  250/  8/ 12 1018.4
WVE H/P(F/S)=  2/ 7 SWL H/P/D(F/S/D)=  2/140/ 7



..........OFFSHORE BUOYS BEYOND 100 NM OFFSHORE...........
.....IN A TRIANGLE---HAT TO BERMUDA TO BAHAMAS TO HAT.....


STATION/POSITION TIME  SKY/WX   TEMP    WIND        PRES    VSBY
                                AIR SEA DIR/SP/G
                 (UTC)          (F)     (DEG/KT/KT) (MB)    (MI)
150E HAT   41001 NOT AVBL
W BERMUDA  41048 0350            70 73  290/ 16/ 17 1015.7
WVE H/P(F/S)=  9/ 9 SWL H/P/D(F/S/D)=  7/280/ 9

ATLANTIC S 41049 0350            75 76  250/ 12/ 14 1018.7
WVE H/P(F/S)=  5/ 8 SWL H/P/D(F/S/D)=  3/320/ 8

E BAHAMAS  41046 0430            77 78  180/  6/  6 1018.9F
NE BAHAMAS 41047 0430            77 78  330/  8/ 10 1017.5F
120E CANVRL41010 NOT AVBL

END



USA.gov is the U.S. government's official web portal to all federal, state and local government web resources and services.